Hue, Viet Nam

11:25 PM ICT on October 01, 2016 (GMT +0700)
Phubai

Weather History for VVPB - March, 2013

Change the Weather History Date:

Friday, March 1, 2013

  Actual Average Record
Temperature  
Mean Temperature 82 °F -  
Max Temperature 93 °F - - ()
Min Temperature 72 °F - - ()
Cooling Degree Days 18    
Growing Degree Days 32 (Base 50)    
Moisture  
Dew Point 76 °F    
Average Humidity 83    
Maximum Humidity 100    
Minimum Humidity 47    
Precipitation  
Precipitation 0.00 in - - ()
Sea Level Pressure  
Sea Level Pressure 29.80 in    
Wind  
Wind Speed 3 mph ()    
Max Wind Speed 7 mph    
Max Gust Speed -    
Visibility 5.7 miles    
Events      
T = Trace of Precipitation, MM = Missing Value Source: Averaged Metar Reports

Daily Weather History Graph

Daily Weather History Graph

Search for Another Location

Airport or City:

Trip Planner

Search our weather history database for the weather conditions in past years. The results will help you decide how hot, cold, wet, or windy it might be!

Date:

Astronomy

Mar. 01, 2013 Rise Set
Actual Time 6:07 AM ICT 5:56 PM ICT
Civil Twilight 5:45 AM ICT 6:17 PM ICT
Nautical Twilight 5:20 AM ICT 6:43 PM ICT
Astronomical Twilight 4:55 AM ICT 7:08 PM ICT
Moon 9:08 PM ICT 8:12 AM ICT
Length of Visible Light 12h 32m
Length of Day
11h 49m
Waning Gibbous, 87% of the Moon is Illuminated
Mar 1
Waning Gibbous
Mar 5
Last Quarter
Mar 12
New
Mar 20
First Quarter
Mar 27
Full

Hourly Weather History & Observations

Time (ICT) Temp. Heat Index Dew Point Humidity Pressure Visibility Wind Dir Wind Speed Gust Speed Precip Events Conditions
12:00 AM 77.0 °F - 77.0 °F 100% 29.80 in 5.0 mi WNW 3.5 mph - N/A   Mostly Cloudy
12:30 AM 77.0 °F - 75.2 °F 94% 29.80 in 3.1 mi West 3.5 mph - N/A   Mostly Cloudy
1:00 AM 76 °F - 75 °F 94% 29.78 in 12 mi Calm Calm - -   Clear
1:00 AM 77.0 °F - 75.2 °F 94% 29.80 in 3.1 mi West 4.6 mph - N/A   Mostly Cloudy
1:30 AM 77.0 °F - 75.2 °F 94% 29.80 in 3.1 mi West 3.5 mph - N/A   Scattered Clouds
2:00 AM 77.0 °F - 75.2 °F 94% 29.77 in 3.1 mi Variable 1.2 mph - N/A   Scattered Clouds
2:30 AM 75.2 °F - 75.2 °F 100% 29.77 in 2.8 mi SSW 3.5 mph - N/A   Scattered Clouds
3:00 AM 75.2 °F - 75.2 °F 100% 29.77 in 2.8 mi Variable 2.3 mph - N/A   Scattered Clouds
3:30 AM 75.2 °F - 75.2 °F 100% 29.77 in 2.8 mi Variable 1.2 mph - N/A   Scattered Clouds
4:00 AM 74 °F - 73 °F 96% 29.75 in 12 mi Calm Calm - -   Clear
4:00 AM 75.2 °F - 73.4 °F 94% 29.77 in 2.8 mi Variable 2.3 mph - N/A   Scattered Clouds
4:30 AM 75.2 °F - 73.4 °F 94% 29.77 in 2.8 mi Variable 2.3 mph - N/A   Scattered Clouds
5:00 AM 75.2 °F - 73.4 °F 94% 29.77 in 3.7 mi South 3.5 mph - N/A   Scattered Clouds
5:30 AM 75.2 °F - 73.4 °F 94% 29.77 in 3.7 mi South 3.5 mph - N/A   Scattered Clouds
6:00 AM 75.2 °F - 73.4 °F 94% 29.80 in 1.6 mi Variable 1.2 mph - N/A   Scattered Clouds
6:30 AM 75.2 °F - 73.4 °F 94% 29.80 in 1.9 mi Variable 1.2 mph - N/A   Scattered Clouds
7:00 AM 74 °F - 73 °F 97% 29.81 in 12 mi Calm Calm - -   Clear
7:00 AM 75.2 °F - 73.4 °F 94% 29.83 in 2.5 mi Variable 1.2 mph - N/A   Scattered Clouds
7:30 AM 77.0 °F - 75.2 °F 94% 29.83 in 3.1 mi Variable 1.2 mph - N/A   Scattered Clouds
8:00 AM 78.8 °F - 75.2 °F 89% 29.83 in 4.3 mi South 3.5 mph - N/A   Scattered Clouds
8:30 AM 80.6 °F 86.2 °F 75.2 °F 84% 29.86 in 5.0 mi Variable 2.3 mph - N/A   Scattered Clouds
9:00 AM 82.4 °F 89.5 °F 75.2 °F 79% 29.86 in 6.2 mi Variable 2.3 mph - N/A   Scattered Clouds
9:30 AM 84.2 °F 94.1 °F 77.0 °F 79% 29.86 in 6.2 mi Variable 2.3 mph - N/A   Scattered Clouds
10:00 AM 86 °F - 75 °F 63% 29.85 in 12 mi SW 2.2 mph - -   Clear
11:00 AM 89.6 °F 102.2 °F 77.0 °F 66% 29.86 in - ENE 3.5 mph - N/A   Clear
11:30 AM 91.4 °F 105.1 °F 77.0 °F 63% 29.83 in - ENE 6.9 mph - N/A   Clear
12:00 PM 91.4 °F 105.1 °F 77.0 °F 63% 29.80 in - ENE 6.9 mph - N/A   Clear
1:00 PM 92 °F - 80 °F 60% 29.78 in 12 mi NE 6.7 mph - -  
1:00 PM 93.2 °F 110.2 °F 78.8 °F 63% 29.80 in - East 4.6 mph - N/A   Clear
1:30 PM 93.2 °F 113.6 °F 80.6 °F 67% 29.80 in - NE 6.9 mph - N/A   Clear
2:00 PM 93.2 °F 113.6 °F 80.6 °F 67% 29.80 in - NE 6.9 mph - N/A   Clear
2:30 PM 91.4 °F 107.2 °F 78.8 °F 66% 29.77 in - ENE 6.9 mph - N/A   Clear
3:00 PM 91.4 °F 105.1 °F 77.0 °F 63% 29.77 in - NE 6.9 mph - N/A   Clear
3:30 PM 91.4 °F 105.1 °F 77.0 °F 63% 29.74 in - NE 6.9 mph - N/A   Clear
4:00 PM 90 °F - 72 °F 47% 29.74 in 12 mi ESE 4.5 mph - -   Clear
4:00 PM 89.6 °F 102.2 °F 77.0 °F 66% 29.74 in - NE 5.8 mph - N/A   Clear
4:30 PM 89.6 °F 102.2 °F 77.0 °F 66% 29.74 in - East 6.9 mph - N/A   Clear
5:00 PM 86.0 °F 96.9 °F 77.0 °F 74% 29.74 in - ENE 5.8 mph - N/A   Clear
5:30 PM 84.2 °F 94.1 °F 77.0 °F 79% 29.77 in - NE 3.5 mph - N/A   Clear
6:00 PM 82.4 °F 90.9 °F 77.0 °F 84% 29.77 in 4.3 mi NNE 3.5 mph - N/A   Scattered Clouds
6:30 PM 80.6 °F 86.2 °F 75.2 °F 84% 29.77 in 5.0 mi Variable 2.3 mph - N/A   Scattered Clouds
7:00 PM 80 °F - 76 °F 84% 29.77 in 12 mi Calm Calm - -   Scattered Clouds
7:00 PM 80.6 °F 86.2 °F 75.2 °F 84% 29.80 in 5.0 mi ENE 3.5 mph - N/A   Scattered Clouds
7:30 PM 80.6 °F 86.2 °F 75.2 °F 84% 29.80 in 5.0 mi Variable 2.3 mph - N/A   Scattered Clouds
8:00 PM 78.8 °F - 75.2 °F 89% 29.80 in 5.0 mi East 3.5 mph - N/A   Scattered Clouds
8:30 PM 78.8 °F - 75.2 °F 89% 29.83 in 5.0 mi ESE 3.5 mph - N/A   Scattered Clouds
9:00 PM 78.8 °F - 75.2 °F 89% 29.86 in 5.0 mi Variable 2.3 mph - N/A   Scattered Clouds
9:30 PM 78.8 °F - 75.2 °F 89% 29.86 in 5.0 mi Variable 2.3 mph - N/A   Scattered Clouds
10:00 PM 78 °F - 76 °F 92% 29.84 in 12 mi ESE 2.2 mph - -   Partly Cloudy
10:00 PM 78.8 °F - 75.2 °F 89% 29.86 in 6.2 mi Variable 1.2 mph - N/A   Scattered Clouds
10:30 PM 77.0 °F - 75.2 °F 94% 29.86 in 6.2 mi ENE 4.6 mph - N/A   Scattered Clouds
11:00 PM 77.0 °F - 75.2 °F 94% 29.86 in 6.2 mi Variable 2.3 mph - N/A   Scattered Clouds
11:30 PM 78.8 °F - 77.0 °F 94% 29.86 in 4.3 mi Variable 2.3 mph - N/A   Scattered Clouds